[[{"header":{"parameterUnit":"m.s-1","parameterCategory":2,"la1":30.2991,"la2":30.254,"lo1":-89.0895,"lo2":-89.0444,"dy":0.0017,"dx":0.0017,"nx":28,"ny":28,"refTime":"2024-05-10T21:00:00:Z","depth":"0","parameterNumber":2,"parameterNumberName":"U-component_of_CURRENTS"},"data":[0,0,0,0,0,0,0,0,0,0,0,0,0,0,0,0,0,0,0,0,0,0,0,0,0,0,0,0,0,0,0,0,0,0,0,0,0,0,0,0,0,0,0,0,0,0,0,0,0,0,0,0,0,0,0,0,0,0,-0.3524,-0.3525,0,-0.3562,-0.3562,-0.3562,-0.3513,-0.3511,-0.351,-0.3509,-0.3441,-0.344,-0.344,0,0,0,0,0,0,0,0,0,0,0,0,0,-0.3393,-0.3395,-0.3524,-0.3525,-0.3526,-0.3562,-0.3562,-0.3562,-0.3513,-0.3511,-0.3509,-0.3508,-0.3441,-0.344,-0.344,0,0,0,0,0,0,0,0,0,0,0,0,0,-0.3438,-0.3396,-0.3524,-0.3509,-0.3508,-0.3562,-0.3562,-0.3563,-0.3513,-0.3511,-0.3509,-0.3507,-0.3441,-0.344,-0.344,-0.3477,0,0,-0.3437,-0.3437,0,0,0,0,0,0,0,0,-0.3435,-0.3442,-0.351,-0.351,-0.351,-0.3535,-0.3491,-0.353,-0.3514,-0.3507,-0.3508,-0.3506,-0.3467,-0.3464,-0.3471,-0.3473,-0.3471,-0.3437,-0.3437,-0.3436,-0.3436,0,0,0,0,0,0,0,-0.3432,-0.344,-0.3535,-0.3512,-0.3511,-0.3495,-0.3499,-0.3498,-0.3492,-0.3507,-0.3505,-0.3517,-0.3465,-0.3472,-0.3468,-0.347,-0.3437,-0.3436,-0.3436,-0.3436,-0.3474,-0.3476,0,0,0,0,0,0,-0.3441,-0.3438,-0.3534,-0.3536,-0.3472,-0.35,-0.3504,-0.3525,-0.3495,-0.349,-0.3519,-0.3514,-0.3474,-0.3469,-0.3466,-0.3492,-0.3436,-0.3436,-0.3435,-0.3473,-0.3475,-0.3476,0,0,0,0,0,0,-0.3438,-0.3449,-0.3532,-0.349,-0.35,-0.3505,-0.3529,-0.3527,-0.3526,-0.3505,-0.3497,-0.3518,-0.3472,-0.3467,-0.3467,-0.3489,-0.3435,-0.3435,-0.3471,-0.3473,-0.3476,-0.3554,0,0,0,0,0,0,-0.3434,-0.3448,-0.3459,-0.3492,-0.3503,-0.3567,-0.3531,-0.3529,-0.3539,-0.3533,-0.3503,-0.3495,-0.347,-0.3468,-0.3466,-0.3487,-0.3434,-0.3469,-0.3472,-0.3475,-0.3549,-0.3558,-0.3566,0,0,0,0,0,-0.3429,-0.3455,-0.346,-0.3471,-0.3521,-0.3569,-0.3574,-0.3565,-0.3541,-0.3553,-0.353,-0.3496,-0.3484,-0.347,-0.3466,-0.3487,-0.3468,-0.3471,-0.3475,-0.3545,-0.3557,-0.3566,0,0,0,0,0,0,-0.3397,-0.3454,-0.3459,-0.3499,-0.3534,-0.3562,-0.3571,-0.3571,-0.3566,-0.3551,-0.3518,-0.351,-0.3519,-0.3498,-0.3482,-0.3508,-0.347,-0.3473,-0.3525,-0.3535,-0.3543,-0.3545,-0.3433,0,0,0,0,0,-0.3401,-0.3433,-0.3485,-0.3513,-0.3534,-0.3554,-0.3568,-0.3573,-0.3579,-0.3574,-0.3555,-0.3537,-0.3536,-0.3529,-0.3523,-0.354,-0.3505,-0.3551,-0.356,-0.3567,-0.3567,-0.3547,-0.3553,-0.3487,-0.3487,-0.3487,0,0,-0.3393,-0.3431,-0.3445,-0.3508,-0.3529,-0.3574,-0.3555,-0.3588,-0.3615,-0.3569,-0.3581,-0.3567,-0.3548,-0.3566,-0.3567,-0.3546,-0.3567,-0.3571,-0.3577,-0.3574,-0.3551,-0.3557,-0.3563,-0.349,-0.3489,-0.3489,0,0,-0.3402,-0.3432,-0.3464,-0.3506,-0.3558,-0.3581,-0.3594,-0.3631,-0.3634,-0.3662,-0.3632,-0.3635,-0.3629,-0.3626,-0.3621,-0.3676,-0.3615,-0.3669,-0.371,-0.3692,-0.3696,-0.37,-0.366,-0.3659,-0.3671,-0.3671,-0.3671,0,-0.3385,-0.3437,-0.3479,-0.3529,-0.3557,-0.3588,-0.3627,-0.3656,-0.3684,-0.3687,-0.3671,-0.3672,-0.3662,-0.368,-0.3702,-0.3695,-0.366,-0.3673,-0.3701,-0.3704,-0.3707,-0.3664,-0.3663,-0.3675,-0.3675,-0.3674,-0.3674,0,-0.3426,-0.3466,-0.349,-0.3563,-0.3605,-0.3642,-0.37,-0.3728,-0.3733,-0.375,-0.3766,-0.376,-0.3751,-0.3762,-0.3751,-0.377,-0.3731,-0.3716,-0.3673,-0.3718,-0.3671,-0.3668,-0.3681,-0.368,-0.3679,-0.3678,0,0,-0.3369,-0.3492,-0.3494,-0.3526,-0.362,-0.3652,-0.3719,-0.377,-0.3789,-0.3818,-0.3829,-0.3855,-0.3836,-0.3831,-0.3818,-0.3817,-0.3816,-0.3778,-0.3775,-0.3733,-0.375,-0.3644,-0.3629,-0.3798,-0.3798,-0.3798,-0.3707,0,-0.3371,-0.3456,-0.3522,-0.3584,-0.3624,-0.3689,-0.3744,-0.3799,-0.3829,-0.3854,-0.3864,-0.3869,-0.3868,-0.3856,-0.3862,-0.3828,-0.3812,-0.3841,-0.3716,-0.3712,-0.3609,-0.3624,-0.3486,-0.3386,-0.3704,-0.3703,-0.3703,0,-0.3369,-0.3427,-0.3491,-0.3584,-0.3606,-0.3651,-0.3718,-0.3772,-0.3838,-0.3859,-0.388,-0.3884,-0.3899,-0.3883,-0.3849,-0.3861,-0.3811,-0.3784,-0.3779,-0.3649,-0.36,-0.3394,-0.3368,-0.3336,-0.3697,-0.3698,-0.3698,0,-0.3279,-0.3391,-0.3431,-0.3467,-0.3589,-0.3615,-0.3667,-0.3752,-0.379,-0.3845,-0.3865,-0.3886,-0.3875,-0.3848,-0.381,-0.382,-0.3752,-0.3751,-0.3605,-0.3596,-0.3437,-0.3414,-0.3359,-0.3709,-0.371,-0.371,-0.371,0,-0.3237,-0.3263,-0.3388,-0.3406,-0.3446,-0.3549,-0.3588,-0.3652,-0.3735,-0.3757,-0.3838,-0.3847,-0.3865,-0.3839,-0.3803,-0.3686,-0.3736,-0.3604,-0.3566,-0.346,-0.344,-0.3371,-0.3401,-0.3706,-0.3707,-0.3708,-0.3708,0,-0.3125,-0.3211,-0.326,-0.3375,-0.3404,-0.3424,-0.3537,-0.356,-0.3663,-0.3693,-0.3707,-0.38,-0.376,-0.376,-0.3702,-0.3646,-0.3494,-0.3507,-0.3373,-0.332,-0.3146,-0.3185,-0.3076,-0.2988,-0.3326,-0.3322,-0.332,0,-0.3077,-0.309,-0.3203,-0.3213,-0.3255,-0.3313,-0.3342,-0.3484,-0.3518,-0.3643,-0.3634,-0.3657,-0.3627,-0.3533,-0.3442,-0.3334,-0.3347,-0.3147,-0.3147,-0.3107,-0.3125,-0.3156,-0.3094,-0.2967,-0.2962,-0.2958,-0.2954,0,-0.2954,-0.2994,-0.3021,-0.3067,-0.3095,-0.3144,-0.3203,-0.3241,-0.3381,-0.3424,-0.3455,-0.3452,-0.3392,-0.3239,-0.3129,-0.3054,-0.3065,-0.305,-0.3046,-0.2866,-0.286,-0.2765,-0.3059,-0.2915,-0.2919,-0.2922,-0.2924,-0.2926,-0.2825,-0.2822,-0.2858,-0.2877,-0.2914,-0.2933,-0.2909,-0.2995,-0.3031,-0.305,-0.3179,-0.3131,-0.3078,-0.2906,-0.2823,-0.2656,-0.2751,-0.2591,-0.2648,-0.2689,-0.2587,-0.2786,-0.2582,-0.2584,-0.2585,-0.2587,-0.2588,0,-0.2653,-0.2656,-0.2664,-0.268,-0.264,-0.2732,-0.2764,-0.2711,-0.2673,-0.2758,-0.275,-0.2744,-0.2595,-0.2571,-0.2428,-0.2308,-0.226,-0.2266,-0.2296,-0.2254,-0.2437,-0.2404,-0.2107,-0.2107,-0.2107,-0.2107,-0.2107,-0.2107,-0.2552,-0.2491,-0.2506,-0.2384,-0.2387,-0.2278,-0.2251,-0.2211,-0.2236,-0.2199,-0.2239,-0.235,-0.2364,-0.2479,-0.2301,-0.2171,-0.2125,-0.2047,-0.2093,-0.2258,-0.2294,-0.2329,-0.2303,-0.199,-0.199,-0.1816,-0.1815,-0.1814]},{"header":{"parameterUnit":"m.s-1","parameterCategory":2,"la1":30.2991,"la2":30.254,"lo1":-89.0895,"lo2":-89.0444,"dy":0.0017,"dx":0.0017,"nx":28,"ny":28,"refTime":"2024-05-10T21:00:00:Z","depth":"0","parameterNumber":3,"parameterNumberName":"V-component_of_CURRENTS"},"data":[0,0,0,0,0,0,0,0,0,0,0,0,0,0,0,0,0,0,0,0,0,0,0,0,0,0,0,0,0,0,0,0,0,0,0,0,0,0,0,0,0,0,0,0,0,0,0,0,0,0,0,0,0,0,0,0,0,0,-0.045,-0.0449,0,-0.0336,-0.0334,-0.0333,-0.0253,-0.0253,-0.0252,-0.0252,-0.0105,-0.0102,-0.0098,0,0,0,0,0,0,0,0,0,0,0,0,0,-0.0525,-0.0524,-0.045,-0.0449,-0.0448,-0.0336,-0.0334,-0.0333,-0.0253,-0.0253,-0.0252,-0.0252,-0.0106,-0.0102,-0.0098,0,0,0,0,0,0,0,0,0,0,0,0,0,-0.0458,-0.0524,-0.045,-0.0396,-0.039,-0.0336,-0.0334,-0.0332,-0.0253,-0.0253,-0.0252,-0.0251,-0.0108,-0.0103,-0.0098,-0.0077,0,0,-0.0081,-0.0079,0,0,0,0,0,0,0,0,-0.0462,-0.0455,-0.0405,-0.04,-0.0393,-0.031,-0.0307,-0.0246,-0.0253,-0.0303,-0.0252,-0.0251,-0.0173,-0.0162,-0.0139,-0.0071,-0.0064,-0.0081,-0.0078,-0.0076,-0.0074,0,0,0,0,0,0,0,-0.0467,-0.0459,-0.0402,-0.0404,-0.0397,-0.0352,-0.0343,-0.0295,-0.024,-0.0299,-0.0293,-0.0284,-0.0169,-0.0145,-0.0135,-0.0062,-0.0081,-0.0076,-0.0073,-0.0071,0.0049,0.0049,0,0,0,0,0,0,-0.049,-0.0464,-0.0406,-0.0399,-0.0429,-0.0352,-0.0341,-0.0336,-0.0241,-0.0227,-0.0285,-0.0281,-0.0154,-0.0141,-0.013,-0.0102,-0.0076,-0.0071,-0.0068,0.0049,0.0049,0.0049,0,0,0,0,0,0,-0.0492,-0.0486,-0.0411,-0.043,-0.0418,-0.0352,-0.0346,-0.0334,-0.031,-0.0232,-0.0216,-0.0275,-0.0153,-0.0137,-0.0089,-0.0096,-0.0068,-0.0063,0.0049,0.0049,0.0049,-0.0045,0,0,0,0,0,0,-0.0495,-0.0488,-0.0495,-0.0432,-0.0418,-0.0392,-0.0347,-0.0332,-0.0307,-0.0301,-0.0218,-0.0204,-0.0151,-0.0097,-0.0084,-0.0088,-0.0059,0.0049,0.0049,0.0049,-0.0042,-0.0048,-0.0054,0,0,0,0,0,-0.0498,-0.0516,-0.0496,-0.0489,-0.0429,-0.0393,-0.0381,-0.033,-0.0307,-0.0305,-0.0244,-0.0206,-0.0087,-0.0093,-0.0077,-0.008,0.0049,0.0049,0.0049,-0.0039,-0.0047,-0.0054,0,0,0,0,0,0,-0.0552,-0.0508,-0.0484,-0.0488,-0.0448,-0.038,-0.0377,-0.0339,-0.0289,-0.0283,-0.0206,-0.0187,-0.0148,-0.01,-0.0109,-0.0044,-0.0013,-0.001,-0.0086,-0.0092,-0.0098,-0.0115,-0.0055,0,0,0,0,0,-0.0569,-0.0571,-0.0516,-0.0519,-0.0505,-0.0442,-0.0422,-0.0387,-0.0334,-0.0311,-0.0251,-0.0188,-0.0135,-0.0104,-0.0053,-0.0018,0.0041,-0.0008,-0.0014,-0.0019,-0.0021,0.0057,0.0058,0.0049,0.0049,0.0049,0,0,-0.059,-0.0567,-0.0567,-0.0531,-0.0496,-0.0486,-0.0428,-0.0407,-0.0391,-0.0304,-0.0269,-0.021,-0.0132,-0.0092,-0.007,-0.0052,0.0015,-0.0019,-0.0025,-0.0024,0.0057,0.0058,0.0059,0.0049,0.0049,0.0049,0,0,-0.0643,-0.0615,-0.0637,-0.0611,-0.0572,-0.0527,-0.0527,-0.0463,-0.0429,-0.0389,-0.0321,-0.0266,-0.0189,-0.0129,-0.009,-0.0095,-0.0022,-0.0082,-0.012,-0.0044,-0.0043,-0.0041,0.0035,0.0044,-0.008,-0.008,-0.0081,0,-0.0673,-0.0688,-0.0637,-0.0649,-0.0633,-0.0553,-0.0565,-0.0519,-0.0446,-0.0416,-0.0394,-0.0264,-0.0204,-0.0138,-0.0142,-0.0109,-0.0054,-0.0104,-0.0053,-0.005,-0.0046,0.0031,0.0043,-0.0085,-0.0084,-0.0084,-0.0083,0,-0.0738,-0.0747,-0.0758,-0.0742,-0.0716,-0.0715,-0.0645,-0.0612,-0.056,-0.0502,-0.0432,-0.0341,-0.026,-0.0235,-0.0191,-0.0136,-0.0101,-0.0075,-0.0041,-0.0051,0.0031,0.0045,-0.0091,-0.009,-0.0088,-0.0087,0,0,-0.0808,-0.0807,-0.0811,-0.0822,-0.0766,-0.0754,-0.0722,-0.0665,-0.064,-0.0558,-0.0512,-0.0418,-0.0356,-0.0307,-0.0235,-0.0169,-0.0101,-0.0122,-0.0116,-0.0058,0.0069,0.0134,0.0155,-0.0069,-0.0067,-0.0065,0.0116,0,-0.0874,-0.0929,-0.0896,-0.0927,-0.0942,-0.086,-0.0834,-0.0767,-0.0692,-0.0626,-0.0511,-0.0444,-0.0385,-0.0347,-0.0272,-0.0139,-0.0069,-0.0152,0.008,0.0087,0.0137,0.0172,0.0213,0.0382,0.013,0.0133,0.0134,0,-0.0944,-0.097,-0.1024,-0.1018,-0.1015,-0.101,-0.0946,-0.0914,-0.0792,-0.0733,-0.0633,-0.0532,-0.0409,-0.0367,-0.0146,-0.0201,-0.0082,0.002,0.003,0.0132,0.0177,0.0355,0.0418,0.0611,0.0156,0.0154,0.0153,0,-0.102,-0.1054,-0.1102,-0.1102,-0.1079,-0.1075,-0.1047,-0.0947,-0.0916,-0.0793,-0.0745,-0.0583,-0.049,-0.0323,-0.0106,-0.0125,0.0142,0.0148,0.0323,0.0329,0.0433,0.0445,0.0704,0.0295,0.0294,0.0294,0.0293,0,-0.1096,-0.1134,-0.1147,-0.1175,-0.1217,-0.1159,-0.1164,-0.1108,-0.1012,-0.0967,-0.0809,-0.0722,-0.0477,-0.0286,-0.0109,0.0165,0.015,0.0331,0.0386,0.0402,0.0409,0.0637,0.0708,0.0301,0.0299,0.0298,0.0297,0,-0.117,-0.1178,-0.1242,-0.1253,-0.1259,-0.1287,-0.1259,-0.125,-0.1147,-0.1077,-0.1039,-0.081,-0.055,-0.029,0.0011,0.0171,0.0551,0.0507,0.0511,0.0563,0.0888,0.095,0.1261,0.1389,0.0729,0.0732,0.0734,0,-0.1213,-0.1255,-0.1319,-0.136,-0.1371,-0.1398,-0.1406,-0.1331,-0.1307,-0.1122,-0.1088,-0.082,-0.0608,-0.0128,0.0209,0.0562,0.0696,0.0788,0.0757,0.0934,0.1045,0.1079,0.1165,0.0864,0.0867,0.087,0.0872,0,-0.129,-0.1315,-0.1366,-0.1461,-0.1501,-0.1546,-0.1545,-0.1542,-0.1425,-0.1329,-0.1138,-0.0947,-0.0456,-0.0005,0.0458,0.0655,0.0944,0.0851,0.1047,0.1189,0.1234,0.1372,0.0711,0.0896,0.0893,0.0891,0.089,0.0889,-0.1336,-0.1401,-0.1471,-0.1554,-0.161,-0.1661,-0.1678,-0.1642,-0.1581,-0.1393,-0.119,-0.0855,-0.0194,0.0484,0.0735,0.1239,0.1171,0.1358,0.1425,0.1448,0.156,0.0948,0.1179,0.1179,0.1178,0.1177,0.1177,0,-0.139,-0.1461,-0.1554,-0.1649,-0.1721,-0.1726,-0.1742,-0.171,-0.1628,-0.1404,-0.1169,-0.0432,0.0216,0.0808,0.1538,0.1799,0.1851,0.1905,0.1969,0.2035,0.1519,0.1513,0.1812,0.1812,0.1812,0.1812,0.1811,0.1811,-0.1419,-0.1521,-0.1577,-0.171,-0.1772,-0.1819,-0.1819,-0.1745,-0.1587,-0.1194,-0.0789,-0.0436,0.042,0.1622,0.2281,0.2324,0.255,0.2506,0.2639,0.2274,0.2227,0.2183,0.2197,0.2634,0.2635,0.3133,0.3138,0.3142]}],[{"header":{"parameterUnit":"m.s-1","parameterCategory":2,"la1":30.2991,"la2":30.254,"lo1":-89.0895,"lo2":-89.0444,"dy":0.0017,"dx":0.0017,"nx":28,"ny":28,"refTime":"2024-05-10T21:00:00:Z","depth":"2","parameterNumber":2,"parameterNumberName":"U-component_of_CURRENTS"},"data":[0,0,0,0,0,0,0,0,0,0,0,0,0,0,0,0,0,0,0,0,0,0,0,0,0,0,0,0,0,0,0,0,0,0,0,0,0,0,0,0,0,0,0,0,0,0,0,0,0,0,0,0,0,0,0,0,0,0,-0.308,-0.3081,0,-0.3129,-0.3129,-0.3129,-0.3103,-0.3102,-0.3101,-0.31,-0.3073,-0.3074,-0.3074,0,0,0,0,0,0,0,0,0,0,0,0,0,-0.2966,-0.2968,-0.308,-0.3081,-0.3082,-0.3129,-0.3129,-0.3129,-0.3103,-0.3102,-0.3101,-0.31,-0.3073,-0.3074,-0.3074,0,0,0,0,0,0,0,0,0,0,0,0,0,-0.3012,-0.2968,-0.308,-0.3077,-0.3078,-0.3129,-0.3129,-0.313,-0.3104,-0.3102,-0.3101,-0.3099,-0.3073,-0.3074,-0.3074,-0.3106,0,0,-0.3075,-0.3075,0,0,0,0,0,0,0,0,-0.3009,-0.3015,-0.3077,-0.3077,-0.3078,-0.3112,-0.3079,-0.3119,-0.3104,-0.309,-0.31,-0.3098,-0.3083,-0.3082,-0.3091,-0.3104,-0.3103,-0.3075,-0.3075,-0.3075,-0.3075,0,0,0,0,0,0,0,-0.3006,-0.3013,-0.3095,-0.3078,-0.3079,-0.3075,-0.3079,-0.3087,-0.309,-0.3091,-0.309,-0.3102,-0.3082,-0.309,-0.309,-0.3103,-0.3075,-0.3075,-0.3075,-0.3076,-0.3136,-0.3137,0,0,0,0,0,0,-0.3009,-0.3011,-0.3094,-0.3097,-0.3043,-0.3078,-0.3083,-0.3099,-0.3091,-0.309,-0.3103,-0.3101,-0.3091,-0.3089,-0.3088,-0.3128,-0.3075,-0.3076,-0.3076,-0.3134,-0.3136,-0.3137,0,0,0,0,0,0,-0.3007,-0.3017,-0.3092,-0.3057,-0.3067,-0.3082,-0.31,-0.3101,-0.311,-0.3102,-0.3098,-0.3112,-0.3089,-0.3088,-0.3103,-0.3127,-0.3076,-0.3076,-0.3132,-0.3135,-0.3137,-0.3206,0,0,0,0,0,0,-0.3003,-0.3015,-0.3026,-0.3058,-0.3069,-0.3129,-0.3102,-0.3103,-0.3122,-0.3118,-0.3109,-0.3104,-0.3088,-0.3103,-0.3103,-0.3126,-0.3076,-0.3131,-0.3133,-0.3136,-0.3202,-0.321,-0.3218,0,0,0,0,0,-0.2999,-0.302,-0.3026,-0.3036,-0.3084,-0.313,-0.3136,-0.3138,-0.3123,-0.3138,-0.313,-0.3105,-0.3119,-0.3104,-0.3105,-0.3128,-0.3129,-0.3133,-0.3136,-0.3199,-0.3209,-0.3217,0,0,0,0,0,0,-0.2972,-0.3021,-0.3028,-0.3061,-0.3097,-0.3127,-0.314,-0.3146,-0.3154,-0.3147,-0.3127,-0.3124,-0.3145,-0.3131,-0.3116,-0.3154,-0.3119,-0.3122,-0.3167,-0.3176,-0.3184,-0.3183,-0.3076,0,0,0,0,0,-0.2975,-0.3002,-0.3049,-0.3075,-0.3095,-0.312,-0.3137,-0.3147,-0.3162,-0.3163,-0.3159,-0.3154,-0.3162,-0.3163,-0.3166,-0.3191,-0.3162,-0.3206,-0.3213,-0.322,-0.322,-0.3206,-0.3213,-0.3148,-0.3148,-0.3148,0,0,-0.297,-0.3002,-0.3015,-0.3072,-0.3095,-0.3137,-0.3125,-0.3162,-0.3192,-0.316,-0.3188,-0.3184,-0.3175,-0.3201,-0.3209,-0.319,-0.3223,-0.3224,-0.323,-0.3226,-0.321,-0.3216,-0.3222,-0.315,-0.3149,-0.3149,0,0,-0.298,-0.3006,-0.3035,-0.3074,-0.3125,-0.3149,-0.3164,-0.3205,-0.3215,-0.3253,-0.3234,-0.3246,-0.3258,-0.3259,-0.3259,-0.3313,-0.3265,-0.3313,-0.3351,-0.3338,-0.3343,-0.3347,-0.3314,-0.3314,-0.3315,-0.3316,-0.3316,0,-0.297,-0.3013,-0.305,-0.3095,-0.3123,-0.3158,-0.3196,-0.3228,-0.3267,-0.3277,-0.3267,-0.329,-0.3286,-0.3313,-0.3333,-0.3331,-0.3305,-0.3316,-0.3347,-0.3351,-0.3353,-0.3318,-0.3317,-0.3319,-0.3319,-0.3319,-0.3318,0,-0.3007,-0.3044,-0.3066,-0.3132,-0.3173,-0.321,-0.3267,-0.3301,-0.3317,-0.3338,-0.3368,-0.337,-0.3375,-0.3386,-0.3379,-0.3404,-0.3372,-0.3359,-0.3321,-0.3364,-0.3324,-0.3322,-0.3325,-0.3323,-0.3322,-0.3321,0,0,-0.2958,-0.3068,-0.307,-0.3103,-0.3191,-0.3223,-0.3291,-0.3345,-0.3373,-0.341,-0.3433,-0.3463,-0.3453,-0.3454,-0.3447,-0.3448,-0.3452,-0.3417,-0.3415,-0.3379,-0.3405,-0.3301,-0.3288,-0.3441,-0.3441,-0.3441,-0.3367,0,-0.2963,-0.304,-0.3098,-0.3161,-0.32,-0.3264,-0.332,-0.3379,-0.3418,-0.3454,-0.3468,-0.3486,-0.3483,-0.3482,-0.3488,-0.3463,-0.3451,-0.3472,-0.3373,-0.3369,-0.3268,-0.3284,-0.3059,-0.2966,-0.3365,-0.3365,-0.3364,0,-0.2962,-0.3015,-0.3078,-0.3168,-0.319,-0.3237,-0.3313,-0.3368,-0.3442,-0.347,-0.3502,-0.3511,-0.3531,-0.3515,-0.349,-0.3502,-0.3459,-0.3435,-0.3431,-0.3306,-0.3262,-0.299,-0.2947,-0.336,-0.3361,-0.3361,-0.3361,0,-0.2885,-0.2989,-0.303,-0.3064,-0.3182,-0.3214,-0.3268,-0.3358,-0.34,-0.347,-0.3497,-0.3525,-0.3524,-0.3501,-0.3466,-0.3474,-0.3419,-0.3417,-0.3279,-0.327,-0.3044,-0.3014,-0.3383,-0.3383,-0.3383,-0.3384,-0.3384,0,-0.2849,-0.2879,-0.2996,-0.3017,-0.3063,-0.3161,-0.3212,-0.3279,-0.3368,-0.3396,-0.3482,-0.3496,-0.3521,-0.3501,-0.3465,-0.3358,-0.341,-0.3279,-0.3245,-0.3061,-0.3036,-0.3353,-0.335,-0.3381,-0.3381,-0.3382,-0.3382,0,-0.2752,-0.2833,-0.2884,-0.2997,-0.3027,-0.3055,-0.317,-0.3198,-0.3308,-0.3348,-0.3367,-0.3463,-0.3432,-0.3435,-0.3386,-0.333,-0.3256,-0.32,-0.2977,-0.2918,-0.3116,-0.3118,-0.3038,-0.3034,-0.303,-0.3027,-0.3025,0,-0.2711,-0.2727,-0.2838,-0.2851,-0.2897,-0.2961,-0.2992,-0.3134,-0.3171,-0.3303,-0.3297,-0.3331,-0.3301,-0.322,-0.313,-0.3027,-0.3135,-0.2766,-0.2746,-0.3105,-0.3081,-0.3089,-0.3096,-0.247,-0.2463,-0.2457,-0.2453,0,-0.2605,-0.2646,-0.2674,-0.2723,-0.2755,-0.2804,-0.2868,-0.2903,-0.3043,-0.3087,-0.312,-0.3116,-0.3067,-0.287,-0.2772,-0.2688,-0.2772,-0.2646,-0.3061,-0.2603,-0.2566,-0.2544,-0.257,-0.2402,-0.2407,-0.2411,-0.2414,-0.2416,-0.2494,-0.2493,-0.253,-0.2553,-0.2592,-0.2609,-0.2585,-0.2666,-0.2697,-0.2714,-0.2838,-0.2755,-0.2745,-0.2475,-0.2341,-0.225,-0.2441,-0.2338,-0.2356,-0.2381,-0.2339,-0.2299,-0.2076,-0.2079,-0.2082,-0.2084,-0.2086,0,-0.2339,-0.2344,-0.2355,-0.2373,-0.2336,-0.2428,-0.2454,-0.2397,-0.2352,-0.2409,-0.2396,-0.2168,-0.2046,-0.205,-0.1829,-0.1782,-0.1776,-0.171,-0.1707,-0.1758,-0.1803,-0.1734,-0.1309,-0.1306,-0.1304,-0.1302,0,0,-0.225,-0.2195,-0.2206,-0.2096,-0.2103,-0.2003,-0.1974,-0.192,-0.192,-0.1827,-0.1788,-0.1936,-0.1996,-0.1654,-0.1569,-0.1404,-0.1566,-0.1334,-0.1959,-0.2007,-0.2049,-0.2166,-0.2116,0,0,0,0,0]},{"header":{"parameterUnit":"m.s-1","parameterCategory":2,"la1":30.2991,"la2":30.254,"lo1":-89.0895,"lo2":-89.0444,"dy":0.0017,"dx":0.0017,"nx":28,"ny":28,"refTime":"2024-05-10T21:00:00:Z","depth":"2","parameterNumber":3,"parameterNumberName":"V-component_of_CURRENTS"},"data":[0,0,0,0,0,0,0,0,0,0,0,0,0,0,0,0,0,0,0,0,0,0,0,0,0,0,0,0,0,0,0,0,0,0,0,0,0,0,0,0,0,0,0,0,0,0,0,0,0,0,0,0,0,0,0,0,0,0,-0.0321,-0.0321,0,-0.0223,-0.0222,-0.0221,-0.0151,-0.0151,-0.0151,-0.015,-0.0022,-0.0019,-0.0016,0,0,0,0,0,0,0,0,0,0,0,0,0,-0.0382,-0.0382,-0.0322,-0.032,-0.0319,-0.0224,-0.0222,-0.022,-0.0151,-0.0151,-0.015,-0.015,-0.0023,-0.0019,-0.0016,0,0,0,0,0,0,0,0,0,0,0,0,0,-0.0325,-0.0381,-0.0322,-0.0275,-0.027,-0.0224,-0.0222,-0.022,-0.0151,-0.0151,-0.015,-0.015,-0.0024,-0.002,-0.0015,0.0003,0,0,-0.0001,0.0001,0,0,0,0,0,0,0,0,-0.0329,-0.0323,-0.0283,-0.0278,-0.0273,-0.0201,-0.0196,-0.0145,-0.0152,-0.0194,-0.015,-0.015,-0.0081,-0.0072,-0.0052,0.0009,0.0014,-0.0001,0.0002,0.0004,0.0006,0,0,0,0,0,0,0,-0.0333,-0.0326,-0.028,-0.0282,-0.0276,-0.0236,-0.0228,-0.0186,-0.0139,-0.019,-0.0186,-0.0178,-0.0077,-0.0056,-0.0048,0.0016,-0.0001,0.0003,0.0006,0.0008,0.0118,0.0118,0,0,0,0,0,0,-0.0353,-0.0331,-0.0284,-0.0278,-0.0302,-0.0236,-0.0227,-0.0223,-0.014,-0.0128,-0.0179,-0.0176,-0.0064,-0.0053,-0.0043,-0.0014,0.0004,0.0009,0.0011,0.0118,0.0118,0.0118,0,0,0,0,0,0,-0.0355,-0.035,-0.0288,-0.0303,-0.0293,-0.0236,-0.0232,-0.0221,-0.0201,-0.0132,-0.0119,-0.0171,-0.0064,-0.005,-0.0006,-0.0009,0.0011,0.0015,0.0118,0.0118,0.0118,0.0042,0,0,0,0,0,0,-0.0357,-0.0352,-0.0359,-0.0305,-0.0293,-0.0271,-0.0232,-0.022,-0.0199,-0.0193,-0.0121,-0.0109,-0.0062,-0.0014,-0.0002,-0.0002,0.0018,0.0118,0.0118,0.0118,0.0045,0.004,0.0036,0,0,0,0,0,-0.036,-0.0378,-0.036,-0.0355,-0.0304,-0.0272,-0.0263,-0.0218,-0.0199,-0.0197,-0.0143,-0.0111,-0.0003,-0.001,0.0004,0.0005,0.0118,0.0118,0.0118,0.0046,0.0041,0.0036,0,0,0,0,0,0,-0.0408,-0.0371,-0.0351,-0.0356,-0.0321,-0.0262,-0.026,-0.0227,-0.0182,-0.0178,-0.0109,-0.0093,-0.0057,-0.0015,-0.0024,0.0039,0.0063,0.0066,0.0003,-0.0001,-0.0006,-0.0023,0.0022,0,0,0,0,0,-0.0424,-0.0427,-0.0379,-0.0384,-0.0372,-0.0317,-0.03,-0.0269,-0.0222,-0.0202,-0.015,-0.0093,-0.0045,-0.0016,0.0029,0.0063,0.0114,0.0075,0.007,0.0066,0.0063,0.0138,0.014,0.0119,0.0119,0.0119,0,0,-0.0444,-0.0424,-0.0425,-0.0394,-0.0365,-0.0355,-0.0305,-0.0288,-0.0272,-0.0196,-0.0164,-0.0111,-0.004,-0.0002,0.0018,0.0033,0.0099,0.0066,0.0062,0.0061,0.0139,0.0141,0.0142,0.012,0.012,0.012,0,0,-0.0492,-0.0469,-0.049,-0.0466,-0.0432,-0.0392,-0.0392,-0.0337,-0.0306,-0.0269,-0.0208,-0.0156,-0.0088,-0.003,0.0007,0.0007,0.0068,0.0018,-0.0012,0.0061,0.0063,0.0066,0.013,0.0139,0.0021,0.0021,0.0021,0,-0.052,-0.0534,-0.049,-0.05,-0.0487,-0.0415,-0.0427,-0.0383,-0.0318,-0.0292,-0.0273,-0.0153,-0.0098,-0.0033,-0.0033,-0.0004,0.0044,-0.0001,0.0054,0.0058,0.0062,0.0128,0.0138,0.0018,0.0018,0.0018,0.0019,0,-0.0578,-0.0588,-0.0598,-0.0584,-0.056,-0.056,-0.0495,-0.0466,-0.0419,-0.0366,-0.03,-0.0215,-0.0142,-0.0115,-0.0074,-0.0017,0.0009,0.0034,0.0063,0.0059,0.0129,0.0141,0.0012,0.0014,0.0015,0.0016,0,0,-0.0645,-0.0643,-0.0647,-0.0657,-0.0606,-0.0596,-0.0564,-0.0512,-0.049,-0.0412,-0.0371,-0.0278,-0.0223,-0.0178,-0.0109,-0.0042,0.0025,-0.0001,0.0004,0.0053,0.0182,0.0226,0.0244,0.0058,0.006,0.0061,0.0217,0,-0.0705,-0.0755,-0.0724,-0.0752,-0.0767,-0.0692,-0.0667,-0.0605,-0.0537,-0.0477,-0.0365,-0.0304,-0.0247,-0.0213,-0.0136,-0.0013,0.0055,-0.002,0.0186,0.0192,0.0225,0.0259,0.0218,0.0356,0.023,0.0232,0.0234,0,-0.0769,-0.0793,-0.0842,-0.0838,-0.0837,-0.0832,-0.0776,-0.0746,-0.0632,-0.0579,-0.0485,-0.0391,-0.0272,-0.023,-0.002,-0.0072,0.0041,0.0137,0.0146,0.0223,0.026,0.0342,0.0384,0.0256,0.0254,0.0252,0.0251,0,-0.084,-0.0872,-0.0917,-0.0917,-0.0896,-0.0895,-0.0871,-0.0779,-0.0752,-0.0639,-0.0597,-0.0442,-0.0357,-0.0196,0.0008,-0.0006,0.0241,0.0252,0.0401,0.0405,0.0429,0.0433,0.0393,0.0393,0.0393,0.0392,0.0392,0,-0.0911,-0.0947,-0.096,-0.0987,-0.103,-0.0976,-0.0986,-0.0936,-0.0849,-0.081,-0.066,-0.0584,-0.0345,-0.0169,0.0001,0.0249,0.0243,0.0407,0.0455,0.0402,0.0401,0.0358,0.0352,0.0398,0.0397,0.0396,0.0395,0,-0.098,-0.0988,-0.1049,-0.1063,-0.107,-0.1099,-0.108,-0.1074,-0.0982,-0.0922,-0.0887,-0.0675,-0.0438,-0.019,0.0094,0.0244,0.047,0.0554,0.0473,0.051,0.0584,0.0572,0.0737,0.074,0.0742,0.0745,0.0746,0,-0.102,-0.106,-0.1125,-0.1165,-0.1178,-0.1208,-0.122,-0.1153,-0.1133,-0.0972,-0.0942,-0.0699,-0.0508,-0.0068,0.024,0.0565,0.0552,0.0701,0.0672,0.0592,0.0623,0.0606,0.0592,0.0675,0.0676,0.0677,0.0678,0,-0.1093,-0.1118,-0.1167,-0.1262,-0.1304,-0.1349,-0.1354,-0.1354,-0.1251,-0.1168,-0.1002,-0.0832,-0.0393,-0.002,0.0402,0.0574,0.0646,0.0729,0.0692,0.0587,0.0545,0.0571,0.0556,0.0685,0.0685,0.0684,0.0684,0.0683,-0.1138,-0.1198,-0.1267,-0.1349,-0.1407,-0.1459,-0.1477,-0.1448,-0.1398,-0.1232,-0.1059,-0.0766,-0.0392,0.0216,0.0514,0.0775,0.0763,0.0821,0.0814,0.0807,0.0765,0.0729,0.0896,0.0896,0.0897,0.0897,0.0897,0,-0.1189,-0.1255,-0.1345,-0.1439,-0.151,-0.1521,-0.1539,-0.1509,-0.144,-0.1248,-0.1044,-0.0612,-0.0175,0.0199,0.0636,0.0897,0.0857,0.0918,0.0821,0.0812,0.0805,0.0758,0.089,0.0891,0.0892,0.0892,0,0,-0.1216,-0.1311,-0.1364,-0.1493,-0.1558,-0.1608,-0.161,-0.154,-0.14,-0.1196,-0.0969,-0.0633,-0.0164,0.0149,0.048,0.0702,0.0678,0.0706,0.0683,0.052,0.0509,0.0722,0.0638,0,0,0,0,0]}],[{"header":{"parameterUnit":"m.s-1","parameterCategory":2,"la1":30.2991,"la2":30.254,"lo1":-89.0895,"lo2":-89.0444,"dy":0.0017,"dx":0.0017,"nx":28,"ny":28,"refTime":"2024-05-10T21:00:00:Z","depth":"4","parameterNumber":2,"parameterNumberName":"U-component_of_CURRENTS"},"data":[0,0,0,0,0,0,0,0,0,0,0,0,0,0,0,0,0,0,0,0,0,0,0,0,0,0,0,0,0,0,0,0,0,0,0,0,0,0,0,0,0,0,0,0,0,0,0,0,0,0,0,0,0,0,0,0,0,0,-0.2064,-0.2065,0,-0.2162,-0.2163,-0.2164,-0.2221,-0.2222,-0.2222,-0.2223,-0.2318,-0.232,-0.2322,0,0,0,0,0,0,0,0,0,0,0,0,0,-0.1942,-0.1944,-0.2064,-0.2065,-0.2067,-0.2162,-0.2163,-0.2164,-0.2221,-0.2222,-0.2222,-0.2223,-0.2317,-0.232,-0.2322,0,0,0,0,0,0,0,0,0,0,0,0,0,-0.2011,-0.1944,-0.2063,-0.2108,-0.2113,-0.2162,-0.2163,-0.2165,-0.2221,-0.2222,-0.2222,-0.2223,-0.2316,-0.2319,-0.2323,-0.233,0,0,-0.2332,-0.2334,0,0,0,0,0,0,0,0,-0.2007,-0.2015,-0.21,-0.2105,-0.2111,-0.2182,-0.2155,-0.2221,-0.2221,-0.2178,-0.2223,-0.2223,-0.2273,-0.228,-0.2294,-0.2335,-0.2339,-0.2333,-0.2335,-0.2336,-0.2337,0,0,0,0,0,0,0,-0.2002,-0.2012,-0.2101,-0.2101,-0.2108,-0.2129,-0.2139,-0.2168,-0.2219,-0.2182,-0.2187,-0.2201,-0.2276,-0.2291,-0.2297,-0.234,-0.2333,-0.2336,-0.2338,-0.2339,-0.2478,-0.248,0,0,0,0,0,0,-0.1993,-0.2007,-0.2098,-0.2104,-0.2062,-0.2131,-0.2142,-0.2157,-0.2219,-0.223,-0.22,-0.2203,-0.2285,-0.2293,-0.23,-0.2401,-0.2336,-0.2339,-0.2341,-0.2476,-0.2478,-0.248,0,0,0,0,0,0,-0.199,-0.2,-0.2094,-0.2059,-0.2073,-0.2132,-0.2148,-0.2158,-0.2211,-0.2233,-0.2244,-0.2247,-0.2286,-0.2296,-0.2362,-0.2401,-0.2341,-0.2343,-0.2474,-0.2477,-0.2479,-0.2545,0,0,0,0,0,0,-0.1986,-0.1998,-0.2024,-0.2058,-0.2074,-0.2147,-0.2148,-0.216,-0.2217,-0.2223,-0.2276,-0.2284,-0.2287,-0.2357,-0.2365,-0.2405,-0.2346,-0.2472,-0.2475,-0.2478,-0.254,-0.2549,-0.2557,0,0,0,0,0,-0.1981,-0.2007,-0.2024,-0.2036,-0.2102,-0.2149,-0.216,-0.2202,-0.2219,-0.225,-0.2289,-0.2284,-0.2383,-0.2362,-0.237,-0.2412,-0.247,-0.2474,-0.2478,-0.2537,-0.2548,-0.2557,0,0,0,0,0,0,-0.1969,-0.2016,-0.2036,-0.2076,-0.2122,-0.216,-0.2197,-0.2224,-0.2279,-0.2296,-0.2311,-0.2322,-0.2392,-0.2395,-0.237,-0.2461,-0.2424,-0.243,-0.2466,-0.2476,-0.2484,-0.2476,-0.2349,0,0,0,0,0,-0.1977,-0.2011,-0.2056,-0.2094,-0.2119,-0.2166,-0.2198,-0.2229,-0.2273,-0.23,-0.2338,-0.2375,-0.2409,-0.2438,-0.2467,-0.2522,-0.2499,-0.2552,-0.2561,-0.2568,-0.2568,-0.2569,-0.2577,-0.2493,-0.2493,-0.2493,0,0,-0.1984,-0.2015,-0.2037,-0.2095,-0.2134,-0.2182,-0.2188,-0.2249,-0.2298,-0.2301,-0.2388,-0.2411,-0.243,-0.2491,-0.2522,-0.2503,-0.258,-0.2573,-0.2579,-0.2575,-0.2574,-0.2582,-0.2588,-0.2496,-0.2495,-0.2495,0,0,-0.2005,-0.2044,-0.2079,-0.2121,-0.2189,-0.2218,-0.2244,-0.2308,-0.2349,-0.2426,-0.2437,-0.2484,-0.2549,-0.2565,-0.2579,-0.2651,-0.2623,-0.2668,-0.2709,-0.2711,-0.2717,-0.2722,-0.2698,-0.27,-0.2673,-0.2673,-0.2674,0,-0.2015,-0.206,-0.2098,-0.2145,-0.2186,-0.2239,-0.2288,-0.2338,-0.2419,-0.2452,-0.2466,-0.2557,-0.2579,-0.2633,-0.2661,-0.267,-0.2657,-0.2669,-0.272,-0.2725,-0.2729,-0.2703,-0.2705,-0.2677,-0.2677,-0.2676,-0.2676,0,-0.2051,-0.2104,-0.2131,-0.2204,-0.2256,-0.2308,-0.2375,-0.2439,-0.2494,-0.2533,-0.2614,-0.2645,-0.2691,-0.2711,-0.2713,-0.2762,-0.2738,-0.2728,-0.269,-0.2741,-0.271,-0.2711,-0.2682,-0.2681,-0.268,-0.2679,0,0,-0.2016,-0.2132,-0.2144,-0.2189,-0.2291,-0.233,-0.2424,-0.2502,-0.2558,-0.2635,-0.2694,-0.276,-0.2773,-0.2789,-0.2799,-0.281,-0.2831,-0.2791,-0.279,-0.2759,-0.2821,-0.2633,-0.2616,-0.2834,-0.2834,-0.2835,-0.2784,0,-0.2032,-0.2118,-0.2178,-0.2269,-0.2316,-0.2399,-0.2475,-0.2558,-0.2629,-0.2702,-0.2741,-0.2801,-0.2803,-0.2831,-0.2846,-0.284,-0.2838,-0.2845,-0.2783,-0.278,-0.2601,-0.2612,-0.2837,-0.2785,-0.2785,-0.2785,-0.2785,0,-0.2033,-0.2093,-0.2182,-0.2297,-0.2326,-0.2396,-0.2515,-0.2588,-0.2695,-0.275,-0.2815,-0.2847,-0.2892,-0.2879,-0.2885,-0.2892,-0.2863,-0.2847,-0.2844,-0.2644,-0.2594,-0.2725,-0.2786,-0.2786,-0.2786,-0.2786,-0.2785,0,-0.1962,-0.2088,-0.2158,-0.22,-0.2341,-0.2405,-0.2482,-0.2603,-0.2664,-0.2777,-0.2825,-0.2884,-0.2913,-0.2905,-0.2883,-0.2892,-0.2861,-0.2861,-0.2659,-0.2645,-0.2802,-0.2796,-0.2846,-0.2846,-0.2846,-0.2847,-0.2847,0,-0.1925,-0.1985,-0.2138,-0.2174,-0.2261,-0.2374,-0.2471,-0.2559,-0.2677,-0.2722,-0.2836,-0.2859,-0.2923,-0.2918,-0.2889,-0.2759,-0.286,-0.2652,-0.2616,-0.283,-0.2829,-0.2801,-0.2797,-0.2845,-0.2845,-0.2845,-0.2846,0,-0.183,-0.1934,-0.2022,-0.2179,-0.2231,-0.2293,-0.2453,-0.25,-0.264,-0.2701,-0.2736,-0.2846,-0.2826,-0.285,-0.2825,-0.2734,-0.2652,-0.2581,-0.2794,-0.2773,-0.2436,-0.2436,-0.2344,-0.2337,-0.2331,-0.2326,-0.2321,0,-0.1786,-0.1824,-0.1998,-0.2042,-0.2119,-0.2232,-0.2289,-0.2456,-0.2499,-0.2652,-0.2644,-0.2703,-0.2741,-0.2551,-0.2605,-0.2516,-0.2488,-0.2433,-0.2446,-0.2408,-0.2384,-0.2393,-0.2401,-0.2312,-0.231,-0.2309,-0.2307,0,-0.1685,-0.1767,-0.1829,-0.1928,-0.2006,-0.2082,-0.2182,-0.2202,-0.2357,-0.2508,-0.2477,-0.2461,-0.2432,-0.2406,-0.2352,-0.2296,-0.2466,-0.2369,-0.2382,-0.2394,-0.2369,-0.2352,-0.2367,-0.2286,-0.2289,-0.2291,-0.2292,0,-0.1601,-0.1623,-0.1712,-0.1777,-0.1867,-0.189,-0.1978,-0.2013,-0.2082,-0.2256,-0.2228,-0.2293,-0.2391,-0.2287,-0.2237,-0.2167,-0.2137,-0.2068,-0.2096,-0.212,-0.207,-0.2007,-0.1765,0,0,0,0,0,-0.1501,-0.1499,-0.1547,-0.1609,-0.1688,-0.1739,-0.1872,-0.1961,-0.2118,-0.2026,-0.2126,-0.2085,-0.2027,-0.207,-0.1946,-0.2131,-0.2146,-0.1979,-0.2083,-0.217,-0.2194,-0.2157,0,0,0,0,0,0,-0.1431,-0.1467,-0.1485,-0.1439,-0.1443,-0.1512,-0.1588,-0.1703,-0.1677,-0.1842,-0.1818,-0.1938,-0.1911,-0.2044,-0.1891,-0.1901,-0.1918,-0.2031,-0.2025,-0.2156,-0.2178,-0.2198,-0.2167,0,0,0,0,0]},{"header":{"parameterUnit":"m.s-1","parameterCategory":2,"la1":30.2991,"la2":30.254,"lo1":-89.0895,"lo2":-89.0444,"dy":0.0017,"dx":0.0017,"nx":28,"ny":28,"refTime":"2024-05-10T21:00:00:Z","depth":"4","parameterNumber":3,"parameterNumberName":"V-component_of_CURRENTS"},"data":[0,0,0,0,0,0,0,0,0,0,0,0,0,0,0,0,0,0,0,0,0,0,0,0,0,0,0,0,0,0,0,0,0,0,0,0,0,0,0,0,0,0,0,0,0,0,0,0,0,0,0,0,0,0,0,0,0,0,-0.02,-0.02,0,-0.0141,-0.014,-0.0139,-0.0093,-0.0093,-0.0093,-0.0092,0.0,0.0002,0.0005,0,0,0,0,0,0,0,0,0,0,0,0,0,-0.0225,-0.0225,-0.0201,-0.02,-0.0199,-0.0141,-0.014,-0.0139,-0.0093,-0.0093,-0.0093,-0.0092,-0.0001,0.0002,0.0005,0,0,0,0,0,0,0,0,0,0,0,0,0,-0.0193,-0.0225,-0.0201,-0.0171,-0.0168,-0.0141,-0.014,-0.0139,-0.0093,-0.0093,-0.0093,-0.0092,-0.0001,0.0002,0.0005,0.0018,0,0,0.0015,0.0017,0,0,0,0,0,0,0,0,-0.0195,-0.0192,-0.0176,-0.0173,-0.017,-0.0126,-0.0115,-0.0085,-0.0093,-0.0119,-0.0092,-0.0092,-0.0041,-0.0034,-0.0021,0.0023,0.0027,0.0016,0.0018,0.0019,0.002,0,0,0,0,0,0,0,-0.0198,-0.0194,-0.0175,-0.0175,-0.0172,-0.0144,-0.0139,-0.0109,-0.0081,-0.0117,-0.0114,-0.0111,-0.0038,-0.0025,-0.0019,0.0028,0.0016,0.0018,0.0021,0.0022,0.0107,0.0107,0,0,0,0,0,0,-0.0212,-0.0197,-0.0177,-0.0173,-0.0184,-0.0144,-0.0139,-0.0139,-0.0082,-0.0073,-0.0111,-0.0109,-0.003,-0.0023,-0.0015,0.001,0.0019,0.0022,0.0024,0.0107,0.0107,0.0108,0,0,0,0,0,0,-0.0213,-0.0211,-0.0179,-0.0185,-0.0179,-0.0145,-0.0145,-0.0138,-0.0126,-0.0078,-0.0069,-0.0108,-0.003,-0.002,0.0012,0.0014,0.0024,0.0027,0.0107,0.0107,0.0107,0.0057,0,0,0,0,0,0,-0.0214,-0.0212,-0.022,-0.0186,-0.018,-0.0171,-0.0145,-0.0137,-0.0126,-0.0122,-0.0072,-0.0062,-0.0029,0.0006,0.0015,0.0019,0.0029,0.0106,0.0107,0.0107,0.0059,0.0056,0.0054,0,0,0,0,0,-0.0215,-0.0231,-0.0221,-0.0219,-0.0191,-0.0172,-0.0166,-0.0138,-0.0126,-0.0126,-0.0087,-0.0064,0.0016,0.0009,0.0019,0.0024,0.0106,0.0107,0.0107,0.006,0.0057,0.0054,0,0,0,0,0,0,-0.0247,-0.0227,-0.0216,-0.0225,-0.0204,-0.0165,-0.0167,-0.0145,-0.0115,-0.0112,-0.0063,-0.0051,-0.0023,0.0008,-0.0001,0.0051,0.0066,0.0068,0.0026,0.0024,0.0021,0.0006,0.0032,0,0,0,0,0,-0.0259,-0.0265,-0.0237,-0.0245,-0.0239,-0.0204,-0.0194,-0.0174,-0.0142,-0.0129,-0.0092,-0.005,-0.0013,0.001,0.0042,0.007,0.0109,0.0082,0.0079,0.0077,0.0072,0.0138,0.0141,0.0109,0.0109,0.0109,0,0,-0.0274,-0.0264,-0.0268,-0.0252,-0.0235,-0.0231,-0.0197,-0.0188,-0.0178,-0.0124,-0.0102,-0.0063,-0.0009,0.0022,0.0038,0.0049,0.0105,0.0078,0.0075,0.0072,0.0139,0.0142,0.0145,0.011,0.011,0.011,0,0,-0.0309,-0.0299,-0.0317,-0.0303,-0.0285,-0.0259,-0.026,-0.0224,-0.0203,-0.0178,-0.0133,-0.009,-0.0041,0.0007,0.0035,0.004,0.0085,0.0048,0.003,0.0094,0.0097,0.01,0.0147,0.0154,0.0053,0.0053,0.0053,0,-0.0329,-0.0346,-0.0318,-0.0328,-0.0323,-0.0275,-0.0287,-0.0256,-0.0213,-0.0194,-0.0181,-0.009,-0.0046,0.0009,0.0012,0.0035,0.007,0.0035,0.009,0.0094,0.0098,0.0145,0.0155,0.0051,0.0051,0.0051,0.0052,0,-0.0372,-0.0386,-0.0395,-0.0391,-0.0378,-0.0382,-0.0337,-0.0319,-0.0287,-0.0249,-0.0198,-0.013,-0.0076,-0.0049,-0.0017,0.0036,0.0051,0.0073,0.0094,0.0098,0.0148,0.0158,0.0048,0.0048,0.0049,0.005,0,0,-0.0416,-0.0427,-0.0431,-0.0445,-0.0414,-0.0411,-0.0389,-0.0355,-0.0344,-0.0283,-0.0255,-0.0174,-0.0133,-0.0097,-0.004,0.0022,0.0084,0.0054,0.0058,0.0093,0.0213,0.0193,0.0203,0.0115,0.0116,0.0118,0.0233,0,-0.0461,-0.0505,-0.0488,-0.0519,-0.0534,-0.0486,-0.0471,-0.0429,-0.0382,-0.034,-0.0247,-0.0203,-0.015,-0.0125,-0.0053,0.0048,0.0109,0.0049,0.021,0.0214,0.0191,0.0214,0.0123,0.0242,0.0244,0.0246,0.0247,0,-0.0505,-0.053,-0.0577,-0.0589,-0.0592,-0.0597,-0.0568,-0.055,-0.0467,-0.0429,-0.0354,-0.0281,-0.0177,-0.0138,0.0042,-0.0001,0.0095,0.0178,0.0185,0.019,0.0214,0.0241,0.0267,0.0265,0.0264,0.0262,0.0261,0,-0.0552,-0.059,-0.0634,-0.0638,-0.0639,-0.0649,-0.0641,-0.058,-0.0565,-0.0484,-0.0456,-0.0326,-0.0259,-0.0117,0.0054,0.0049,0.0251,0.0268,0.0343,0.0343,0.0347,0.0343,0.0392,0.0391,0.0391,0.0391,0.039,0,-0.0596,-0.0634,-0.0669,-0.0694,-0.0745,-0.0715,-0.0741,-0.0709,-0.0653,-0.063,-0.0511,-0.0454,-0.0249,-0.0106,0.0042,0.0223,0.0246,0.0342,0.0375,0.0323,0.0314,0.0354,0.0349,0.0395,0.0394,0.0393,0.0393,0,-0.0633,-0.0656,-0.0718,-0.0754,-0.0772,-0.0807,-0.0823,-0.0827,-0.0768,-0.073,-0.0705,-0.0539,-0.0352,-0.0146,0.0095,0.02,0.0378,0.0436,0.0356,0.0382,0.0429,0.0419,0.0526,0.0527,0.0527,0.0527,0.0528,0,-0.0653,-0.0691,-0.0778,-0.0824,-0.0849,-0.0897,-0.0923,-0.0892,-0.0882,-0.0776,-0.0751,-0.0572,-0.0443,-0.0112,0.0092,0.037,0.0407,0.0485,0.0465,0.0423,0.0445,0.0435,0.0425,0.0528,0.0528,0.0528,0.0528,0,-0.069,-0.073,-0.0781,-0.0885,-0.0942,-0.1,-0.1027,-0.1025,-0.0965,-0.092,-0.0768,-0.0582,-0.0371,-0.0115,0.0101,0.0299,0.0426,0.0489,0.0489,0.0471,0.0426,0.0445,0.0435,0.0529,0.0529,0.0529,0.0529,0,-0.0714,-0.0765,-0.0843,-0.0925,-0.1009,-0.1061,-0.1077,-0.1039,-0.1015,-0.088,-0.0834,-0.0589,-0.0442,-0.0151,0.0048,0.0239,0.0283,0.033,0.034,0.0341,0.0249,0.0162,0.0216,0,0,0,0,0,-0.0727,-0.0785,-0.0872,-0.0962,-0.1047,-0.109,-0.1121,-0.1113,-0.1058,-0.0957,-0.0886,-0.0681,-0.0358,-0.0214,-0.0025,0.0034,0.0295,0.0257,0.0349,0.0535,0.0534,0.0455,0,0,0,0,0,0,-0.0736,-0.0821,-0.087,-0.0972,-0.1035,-0.1116,-0.1135,-0.1102,-0.1029,-0.0947,-0.077,-0.0657,-0.0343,-0.0463,-0.0026,0.0032,0.0109,0.0416,0.0419,0.0536,0.0535,0.0534,0.0452,0,0,0,0,0]}]]